Tracking 17844 objects as of 26-August-2016
HD Live streaming from Space Station
objects crossing your sky now

CZ-3C R/B

Track CZ-3C R/B now!
10-day predictions


NORAD ID: 36591
Int'l Code: 2010-024B
Perigee: 184.9 km
Apogee: 19,021.8 km
Inclination: 20.6 °
Period: 334.9 minutes
Semi major axis: 15974 km
RCS: 15.0139 m2 (large)
Launch date: June 2, 2010
Source: People's Republic of China (PRC)
Launch site: Xichang Space Center, China (XSC)

Note: This is a ROCKET BODY
Your satellite tracking list
Your tracking list is empty





NASA's NSSDC Master Catalog

Two Line Element Set (TLE):
1 36591U 10024B   16239.04615670  .00073014 -36755-6  98510-3 0  9995
2 36591  20.6376 173.5840 5895983 168.9811 213.9395  4.30263424 73436
Source of the keplerian elements: AFSPC

N2YO: 746